Regional Weather Roundup
Issued by NWS

Home | Current Version | Previous Version | Text Only | Print | Product List | Glossary On
Versions: 1 2 3 4 5 6 7 8 9 10 11 12 13 14 15 16 17 18 19 20 21 22 23 24 25 26 27 28 29 30 31 32 33 34 35 36 37 38 39 40 41 42 43 44 45 46 47 48 49 50
384
ASUS43 KDTX 080410
RWRMI
MICHIGAN HOURLY REGIONAL WEATHER ROUNDUP
NATIONAL WEATHER SERVICE DETROIT/PONTIAC MI
1100 PM EST SUN FEB 07 2016

NOTE: "FAIR" INDICATES FEW OR NO CLOUDS BELOW 12,000 FEET WITH NO
SIGNIFICANT WEATHER AND/OR OBSTRUCTION TO VISIBILITY.

MIZ047>049-052>055-059>063-066>070-074>076-081>083-080500-
SOUTHEAST LOWER MICHIGAN

CITY           SKY/WX    TMP DP  RH WIND       PRES   REMARKS
ADRIAN         CLOUDY    39  31  72 SW6       29.72F WCI  35
ALMA           CLOUDY    37  32  83 SW7       29.67F WCI  32
ANN ARBOR      CLOUDY    40  31  70 S6        29.71F
BAD AXE        CLOUDY    39  34  82 S6        29.69F WCI  34
CARO           CLOUDY    39  30  70 S5        29.68S
DETROIT CITY   CLOUDY    45  30  55 SW9       29.71F
DETROIT        CLOUDY    44  32  62 S9        29.72F
FLINT          MOCLDY    43  30  60 SW7       29.69F
GROSSE ILE     CLOUDY    45  30  57 SW8       29.71F
HILLSDALE      MOCLDY    37  32  79 SW3       29.70F
HOWELL         CLOUDY    41  32  70 SW7       29.68F

CITY           SKY/WX    TMP DP  RH WIND       PRES   REMARKS
JACKSON        PTCLDY    39  31  72 SW7       29.69F WCI  34
LAMBERTVILLE   CLOUDY    44  32  62 W5        29.73F
LANSING        CLOUDY    38  31  76 SW8       29.69F WCI  32
LAPEER         CLOUDY    41  31  68 SW6       29.69F
MASON          MOCLDY    38  32  79 SW3       29.69F
MONROE         CLOUDY    45  32  61 SW8       29.72F
MT. CLEMENS    CLOUDY    40  33  76 S7        29.69F WCI  35
PONTIAC        CLOUDY    42  31  64 S6        29.69F
PORT HOPE        N/A     38  34  85 CALM      29.67F
PORT HURON     CLOUDY    41  32  70 S8        29.71F
TRI CITIES     PTCLDY    39  31  72 SW7       29.68F WCI  34
MIDLAND        FAIR      38  30  72 SW5       29.67S WCI  35
TROY           CLOUDY    46  31  57 SW9       29.72F
SAGINAW HB     CLOUDY    39  32  75 SW8       29.68S WCI  34
$$
MIZ043>046-050>051-056>058-064>065-071>073-077>080-080500-
SOUTHWEST LOWER MICHIGAN

CITY           SKY/WX    TMP DP  RH WIND       PRES   REMARKS
BATTLE CREEK   CLOUDY    37  31  78 SW8       29.70F WCI  31
BENTON HARBOR  CLEAR     36  30  79 W12       29.71F WCI  28
BIG RAPIDS     CLOUDY    37  33  89 SW6       29.64F WCI  32
COLDWATER      MOCLDY    35  31  85 SW7       29.71S WCI  29
FREMONT        CLOUDY    37  32  84 SW7       29.65F WCI  31
HOLLAND        PTCLDY    37  30  75 W8        29.69F WCI  31
GRAND RAPIDS   CLOUDY    39  32  76 SW13      29.68F WCI  31
IONIA          CLOUDY    38  32  79 SW12      29.67F WCI  30
KALAMAZOO      PTCLDY    38  29  70 W7        29.70F WCI  33
LUDINGTON      CLOUDY    37  33  85 SW7       29.64S WCI  31
MARSHALL       PTCLDY    36  31  83 SW5       29.69F WCI  32
MOUNT PLEASANT CLOUDY    38  31  76 SW3       29.65S
MUSKEGON       MOCLDY    38  28  67 SW9       29.67F WCI  31
SOUTH HAVEN    PTCLDY    37  31  79 W10       29.71F WCI  30
$$
MIZ016>042-080500-
NORTHERN LOWER MICHIGAN

CITY           SKY/WX    TMP DP  RH WIND       PRES   REMARKS
ALPENA         CLOUDY    36  30  79 S5        29.65F WCI  32
BEAVER ISLAND  CLOUDY    37  33  85 S7        29.59F WCI  32
BELLAIRE       CLOUDY    37  32  81 S3        29.63F
CADILLAC       CLOUDY    34  32  92 S3        29.61F
CHARLEVOIX     CLOUDY    37  32  84 S3        29.64S
FRANKFORT      CLOUDY    37  32  83 S5        29.61F WCI  33
GAYLORD        CLOUDY    36  30  79 SW8       29.60F WCI  30
GRAYLING       CLOUDY    36  31  82 S7        29.63F WCI  30
HARBOR SPRINGS CLOUDY    36  32  84 S3        29.61F
HOUGHTON LAKE  CLOUDY    35  30  82 SW7       29.63F WCI  29
MANISTEE       CLOUDY    37  30  75 S3        29.63F
OSCODA         PTCLDY    37  31  78 SW7       29.65F WCI  32
PELLSTON       CLOUDY    37  31  78 SW6       29.61F WCI  32
ROGERS CITY    CLOUDY    37  30  75 S5        29.64F WCI  33
TRAVERSE CITY  CLOUDY    38  31  76 S5        29.61F WCI  34
$$
MIZ007>008-015-080500-
EASTERN UPPER MICHIGAN

CITY           SKY/WX    TMP DP  RH WIND       PRES   REMARKS
KINROSS        CLOUDY    34  34 100 SE3       29.60S
MACKINAC ISLAN CLOUDY    35  33  92 S6        29.60F WCI  30
NEWBERRY       CLOUDY    34  33  96 S5        29.57S FOG     WCI  30
S. S. MARIE    CLOUDY    33  31  92 E6        29.60F FOG     WCI  28
MUNISING         N/A     35  32  88 S6        29.54F WCI  30
$$
MIZ004>006-011>014-085-080500-
CENTRAL UPPER MICHIGAN

CITY           SKY/WX    TMP DP  RH WIND       PRES   REMARKS
MANISTIQUE     CLOUDY    35  32  91 CALM      29.57S
ESCANABA       CLOUDY    34  30  86 SW5       29.56S WCI  30
MENOMINEE      CLOUDY    36  28  75 SW5       29.57S WCI  32
SAWYER-GWINN   MIX PCPN  31  31 100 S3        29.52S
$$
MIZ001>003-009>011-084-080500-
WESTERN UPPER MICHIGAN

CITY           SKY/WX    TMP DP  RH WIND       PRES   REMARKS
IRON MOUNTAIN  CLOUDY    34  29  82 S5        29.52S WCI  30
HOUGHTON       CLOUDY    32  30  92 NE5       29.50S FOG     WCI  27
COPPER HARBOR    N/A     32  32 100 E15       29.53S WCI  22
IRONWOOD       CLOUDY    30  28  93 W12       29.49S WCI  21
$$

ABBREVIATIONS USED IN REMARKS
   TC - TEMPERATURE IN CELSIUS
  WCI - WIND CHILL INDEX
   HX - HEAT INDEX
  VSB - VISIBILITY





USA.gov is the U.S. government's official web portal to all federal, state and local government web resources and services.